Location: Cruquius
(52.3348°N, 4.6319°E)
Time: 06:21:41
(UTC+00:00)

NOSS 3-3 (C) - Pass Details

Date: 12 May 2021
Orbit: 806 x 1406 km, 63.4° (Epoch: 14 June)

Event Time Altitude Azimuth Distance (km) Brightness Sun altitude
Rises 20:36:56 0° 217° (SW) 3,403 6.7 -9.2°
Reaches altitude 10° 20:39:16 10° 215° (SW) 2,520 6.1 -9.4°
Maximum altitude 20:45:04 76° 131° (SE) 987 3.9 -10.0°
Drops below altitude 10° 20:51:49 10° 48° (NE) 2,901 6.5 -10.7°
Sets 20:54:40 0° 47° (NE) 3,955 7.2 -10.9°
